This demonstration page uses our WeatherBlox Daily Observations layout. Learn more.

Left ArrowRight Arrow

41.55636, -103.73856

Hourly Observations for July 3, 2018

Temp ( °F °C ) Dew Point ( °F °C ) Humidity (%) Winds ( mph kmh ) Pressure ( in mb ) Visibility ( mi km ) Precip ( " mm )
1:58 am 01:58 Mostly Clear 68 20.1 43 6 40 40 WSW 6 9 29.79 1009 10 16 N/A
2:58 am 02:58 Clear 68 20 43 6 40 40 W 9 15 29.77 1008 10 16 N/A
3:58 am 03:58 Clear 62 16.8 45 7.3 54 54 W 8 13 29.78 1008 10 16 N/A
4:58 am 04:58 Clear 61 16 46 8 59 59 W 6 9 29.78 1009 10 16 N/A
5:58 am 05:58 Sunny 61 16 48 9 63 63 W 7 11 29.78 1009 10 16 N/A
6:58 am 06:58 Sunny 64 17.5 49 9.7 60 60 SSE 10 17 29.79 1009 10 16 N/A
7:58 am 07:58 Sunny 68 19.9 51 10.5 55 55 NE 3 6 29.81 1010 10 16 N/A
8:58 am 08:58 Sunny 74 23.6 49 9.3 40 40 NNW 6 9 29.84 1011 10 16 N/A
9:58 am 09:58 Sunny 78 25.7 47 8.4 33 33 SSW 5 7 29.83 1010 10 16 N/A
11:58 am 11:58 Sunny 86 29.8 39 4.1 19 19 SSE 7 11 29.81 1010 10 16 N/A
12:58 pm 12:58 Sunny 87 30.5 45 7.1 23 23 SSE 7 11 29.80 1009 10 16 N/A
1:58 pm 13:58 Sunny 89 31.4 47 8.4 24 24 SSE 14 22 29.81 1010 10 16 N/A
2:58 pm 14:58 Sunny 85 29.4 47 8.4 27 27 SE 10 17 29.81 1009 10 16 N/A
3:58 pm 15:58 Mostly Cloudy 84 28.7 31 -0.7 15 15 W 35 56 29.82 1010 10 16 N/A
4:58 pm 16:58 Mostly Cloudy 83 28.5 30 -0.9 15 15 W 18 30 29.85 1011 10 16 N/A
5:58 pm 17:58 Cloudy with Light Showers 71 21.9 45 7 38 38 E 15 24 29.89 1012 10 16 N/A
6:58 pm 18:58 Mostly Cloudy 72 22.2 46 7.5 39 39 ESE 13 20 29.86 1011 10 16 N/A
7:58 pm 19:58 Partly Cloudy 72 22.1 46 7.8 40 40 SSE 15 24 29.91 1013 10 16 N/A
8:58 pm 20:58 Clear 67 19.5 47 8.2 48 48 SSE 15 24 29.86 1011 10 16 N/A
9:58 pm 21:58 Mostly Cloudy 66 18.7 48 8.7 52 52 ESE 6 9 29.87 1012 10 16 N/A
10:58 pm 22:58 Mostly Cloudy 65 18.4 49 9.3 56 56 SSE 7 11 29.90 1012 10 16 N/A
11:58 pm 23:58 Partly Cloudy 67 19.4 46 8 48 48 SW 8 13 29.93 1014 10 16 N/A

Powered by AerisWeather